COSMOS 1275 DEB, 39941

Orbit data source: Space-Track

COSMOS 1275 DEB, 39941 is space debris in LEO originally from a launch on Thu, 04 Jun 1981 UTC launched from the Plesetsk Missile And Space Complex (PKMTR). Debris objects in space refer to the collection of defunct objects orbiting the Earth. Examples of debris include non-operational satellites, rocket bodies, and fragments generated from explosions, collisions, or faulty payload assembly.

Loading next visibility...
Identifier
39941, 1981-053NB
Orbit
LEO
Country
Flag of CISCIS
Related business
Manufacturer
Unknown
Mission
Spacecraft
Bus & Motor
Unknown
Mass
Unknown
Launch date (UTC)
1981-06-04 (45 years ago)
Launch vehicle
Unknown
Launch site
Plesetsk Missile And Space Complex (PKMTR)
Object type
Payload
Rocket body
Debris
Shape & HBR
Unknown shape, 0.1 m
Radar Cross Section
Small (<0.1 m²)

Expand to show TLE details & history
Last TLE update: 3 weeks ago

TLE from 3 weeks ago
0 COSMOS 1275 DEB
1 39941U 81053NB  25328.65139376  .00002525  00000-0  20915-2 0  9996
2 39941  83.0170 296.3856 0100962  34.1200 326.6396 13.86140512578921
Epoch: 2025-11-24T15:38Z
TLE epoch observation values (Epoch: 2025-11-24T15:38:00.420Z)
Latitude
-0.00011°
Longitude
-1.96447°
Altitude
883.591 km
Speed
7.441 km/s
True Right ascension
19h 45m 32s
True Declination
0° 00' 00"
Sunlit
Object was in daylight at epoch
Visualization orbit readout
Latitude
Unknown
Longitude
Unknown
Altitude
Unknown
Speed
Unknown
Apparent Right ascension
Unknown
Apparent Declination
Unknown
Sunlit
N/A
Visualization observer readout
Local Sidereal Time
09:08:54
Azimuth
Unknown
Elevation
Unknown
Doppler factor
Unknown
Orbital elements
Apogee altitude
1,013.196 km
Perigee altitude
865.439 km
Semi-major axis
7,317.455 km
Eccentricity
0.0101
Inclination
83.017°
RAAN
296.3856°
Arg. of periapsis
34.12°
True anomaly
325.99663°
Mean anomaly
326.6396°
Eccentric anomaly
326.3188°
Mean motion
3.46739 °/min
Orbital period
103.82 mins
BSTAR
0.0020915
Loading maneuver chart data...
Computing Atmospheric mass density...

Documentation

Showing up to 5 results
|